Weather History for KOZW - May, 2011

Change the Weather History Date:

Wednesday, May 25, 2011

  Actual Average Record
Temperature  
Mean Temperature 55 °F -  
Max Temperature 60 °F 67 °F 82 °F (2012)
Min Temperature 50 °F 47 °F 37 °F (2002)
Degree Days  
Heating Degree Days 10    
Growing Degree Days 5 (Base 50)    
Moisture  
Dew Point 51 °F    
Average Humidity 85    
Maximum Humidity 100    
Minimum Humidity 72    
Precipitation  
Precipitation 0.00 in - - ()
Sea Level Pressure  
Sea Level Pressure 29.87 in    
Wind  
Wind Speed 7 mph (East)    
Max Wind Speed 14 mph    
Max Gust Speed 18 mph    
Visibility 8 miles    
Events Rain    
Averages and records for this station are not official NWS values.
T = Trace of Precipitation, MM = Missing Value Source: NWS Daily Summary

Daily Weather History Graph

Daily Weather History Graph

Search for Another Location

Airport or City:

Trip Planner

Search our weather history database for the weather conditions in past years. The results will help you decide how hot, cold, wet, or windy it might be!

Date:

Astronomy

May. 25, 2011 Rise Set
Actual Time 6:05 AM EDT 9:01 PM EDT
Civil Twilight 5:31 AM EDT 9:34 PM EDT
Nautical Twilight 4:49 AM EDT 10:17 PM EDT
Astronomical Twilight 3:59 AM EDT 11:07 PM EDT
Moon 2:13 AM EDT (5/25) 2:15 PM EDT (5/25)
Length of Visible Light 16h 02m
Length of Day
14h 55m
Last Quarter, 42% of the Moon is Illuminated
May 25
Last Quarter
Jun 1
New
Jun 8
First Quarter
Jun 15
Full
Jun 23
Last Quarter

Hourly Weather History & Observations

Time (EDT) Temp. Dew Point Humidity Pressure Visibility Wind Dir Wind Speed Gust Speed Precip Events Conditions
12:14 AM 59.0 °F 53.6 °F 82% 29.95 in 10.0 mi East 5.8 mph - N/A   Overcast
12:35 AM 59.0 °F 51.8 °F 77% 29.95 in 10.0 mi ESE 5.8 mph - N/A   Overcast
12:54 AM 57.2 °F 51.8 °F 82% 29.96 in 10.0 mi East 4.6 mph - N/A   Overcast
1:14 AM 57.2 °F 50.0 °F 77% 29.95 in 10.0 mi East 6.9 mph - N/A   Overcast
1:34 AM 55.4 °F 50.0 °F 82% 29.95 in 10.0 mi ESE 6.9 mph - N/A   Overcast
1:54 AM 55.4 °F 48.2 °F 77% 29.95 in 10.0 mi East 6.9 mph - N/A   Overcast
2:15 AM 55.4 °F 48.2 °F 77% 29.95 in 10.0 mi East 8.1 mph - N/A   Overcast
2:34 AM 55.4 °F 48.2 °F 77% 29.95 in 10.0 mi ESE 8.1 mph - N/A   Overcast
2:55 AM 55.4 °F 46.4 °F 72% 29.94 in 10.0 mi East 6.9 mph - N/A   Overcast
3:14 AM 53.6 °F 46.4 °F 77% 29.93 in 10.0 mi East 5.8 mph - N/A   Overcast
3:34 AM 53.6 °F 46.4 °F 77% 29.93 in 10.0 mi East 9.2 mph - N/A   Overcast
3:55 AM 53.6 °F 44.6 °F 72% 29.92 in 10.0 mi East 8.1 mph - N/A   Overcast
4:14 AM 53.6 °F 44.6 °F 72% 29.92 in 10.0 mi East 4.6 mph - N/A   Overcast
4:34 AM 53.6 °F 46.4 °F 77% 29.92 in 10.0 mi ENE 4.6 mph - N/A   Overcast
4:55 AM 53.6 °F 44.6 °F 72% 29.92 in 10.0 mi ENE 3.5 mph - N/A   Overcast
5:14 AM 53.6 °F 44.6 °F 72% 29.91 in 10.0 mi East 5.8 mph - N/A   Overcast
5:35 AM 53.6 °F 44.6 °F 72% 29.91 in 10.0 mi ENE 3.5 mph - N/A   Overcast
5:55 AM 53.6 °F 44.6 °F 72% 29.91 in 10.0 mi ENE 3.5 mph - N/A   Overcast
6:14 AM 53.6 °F 46.4 °F 77% 29.91 in 10.0 mi East 3.5 mph - N/A   Overcast
6:35 AM 53.6 °F 46.4 °F 77% 29.91 in 10.0 mi East 3.5 mph - N/A   Overcast
6:54 AM 53.6 °F 46.4 °F 77% 29.91 in 10.0 mi East 4.6 mph - N/A   Overcast
7:14 AM 53.6 °F 46.4 °F 77% 29.92 in 10.0 mi Calm Calm - N/A   Overcast
7:35 AM 51.8 °F 46.4 °F 82% 29.91 in 4.0 mi ENE 5.8 mph - N/A Rain Rain
7:54 AM 51.8 °F 46.4 °F 82% 29.92 in 5.0 mi ENE 5.8 mph - N/A Rain Rain
8:14 AM 51.8 °F 48.2 °F 88% 29.93 in 7.0 mi Calm Calm - N/A Rain Light Rain
8:35 AM 51.8 °F 48.2 °F 88% 29.95 in 5.0 mi ESE 3.5 mph - N/A Rain Rain
8:54 AM 50.0 °F 48.2 °F 94% 29.92 in 5.0 mi East 9.2 mph - N/A Rain Rain
9:14 AM 50.0 °F 50.0 °F 100% 29.91 in 5.0 mi ESE 9.2 mph - N/A Rain Light Rain
9:35 AM 51.8 °F 50.0 °F 94% 29.90 in 10.0 mi East 9.2 mph - N/A Rain Rain
9:54 AM 51.8 °F 50.0 °F 94% 29.89 in 7.0 mi ENE 6.9 mph - N/A Rain Light Rain
10:15 AM 51.8 °F 50.0 °F 94% 29.89 in 7.0 mi ENE 5.8 mph - N/A Rain Rain
10:35 AM 51.8 °F 50.0 °F 94% 29.87 in 5.0 mi East 9.2 mph - N/A Rain Rain
10:54 AM 51.8 °F 51.8 °F 100% 29.86 in 10.0 mi East 4.6 mph - N/A   Overcast
11:15 AM 53.6 °F 51.8 °F 94% 29.86 in 10.0 mi ESE 8.1 mph - N/A   Overcast
11:35 AM 55.4 °F 53.6 °F 94% 29.84 in 10.0 mi East 12.7 mph - N/A Rain Light Rain
11:54 AM 57.2 °F 55.4 °F 94% 29.83 in 10.0 mi ESE 11.5 mph 18.4 mph N/A   Mostly Cloudy
12:15 PM 60.8 °F 57.2 °F 88% 29.83 in 10.0 mi ESE 11.5 mph 17.3 mph N/A   Mostly Cloudy
12:34 PM 60.8 °F 55.4 °F 82% 29.82 in 10.0 mi ESE 11.5 mph - N/A   Mostly Cloudy
12:54 PM 60.8 °F 55.4 °F 82% 29.81 in 10.0 mi ESE 12.7 mph 18.4 mph N/A   Mostly Cloudy
1:14 PM 60.8 °F 55.4 °F 82% 29.82 in 10.0 mi East 6.9 mph - N/A   Mostly Cloudy
1:34 PM 60.8 °F 55.4 °F 82% 29.83 in 7.0 mi ESE 8.1 mph - N/A   Overcast
1:55 PM 59.0 °F 55.4 °F 88% 29.80 in 3.0 mi East 9.2 mph - N/A Rain Rain
2:14 PM 59.0 °F 55.4 °F 88% 29.83 in 4.0 mi Calm Calm - N/A Rain Heavy Rain
2:34 PM 59.0 °F 55.4 °F 88% 29.83 in 2.5 mi ESE 8.1 mph - N/A Rain Heavy Rain
2:55 PM 59.0 °F 55.4 °F 88% 29.78 in 3.0 mi East 6.9 mph - N/A Rain Rain
3:14 PM 59.0 °F 57.2 °F 94% 29.77 in 4.0 mi East 8.1 mph - N/A Rain Heavy Rain
3:34 PM 59.0 °F 57.2 °F 94% 29.74 in 4.0 mi East 13.8 mph 17.3 mph N/A Rain Light Rain
3:54 PM 59.0 °F 57.2 °F 94% 29.72 in 5.0 mi ESE 12.7 mph 16.1 mph N/A Rain Rain
4:15 PM 59.0 °F 57.2 °F 94% 29.69 in 4.0 mi ESE 9.2 mph - N/A Rain Rain
4:34 PM 59.0 °F 59.0 °F 100% 29.69 in 5.0 mi SE 10.4 mph - N/A Rain Light Rain
4:55 PM 59.0 °F 59.0 °F 100% 29.68 in 7.0 mi ESE 9.2 mph - N/A   Overcast
5:14 PM 59.0 °F 59.0 °F 100% 29.75 in 4.0 mi SW 9.2 mph - N/A Rain Heavy Rain
5:34 PM 59.0 °F 59.0 °F 100% 29.77 in 2.0 mi SSW 5.8 mph - N/A Rain Heavy Rain
5:54 PM 60.8 °F 59.0 °F 94% 29.75 in 5.0 mi SE 6.9 mph - N/A Rain Rain
6:14 PM 60.8 °F 59.0 °F 94% 29.71 in 5.0 mi ESE 11.5 mph - N/A Rain Rain
6:34 PM 59.0 °F 59.0 °F 100% 29.65 in 10.0 mi ESE 15.0 mph - N/A Rain Light Rain
6:54 PM 60.8 °F 59.0 °F 94% 29.63 in 10.0 mi ESE 11.5 mph 20.7 mph N/A   Overcast
7:14 PM 60.8 °F 59.0 °F 94% 29.60 in 10.0 mi East 8.1 mph - N/A   Scattered Clouds
7:34 PM 60.8 °F 59.0 °F 94% 29.64 in 10.0 mi SSE 4.6 mph - N/A   Clear
7:55 PM 60.8 °F 59.0 °F 94% 29.64 in 10.0 mi SSE 8.1 mph - N/A   Clear
8:14 PM 60.8 °F 59.0 °F 94% 29.63 in 10.0 mi SSE 8.1 mph - N/A   Clear
8:35 PM 60.8 °F 59.0 °F 94% 29.65 in 10.0 mi SSE 8.1 mph - N/A   Scattered Clouds
8:54 PM 60.8 °F 59.0 °F 94% 29.65 in 10.0 mi SSE 9.2 mph - N/A   Mostly Cloudy
9:14 PM 60.8 °F 59.0 °F 94% 29.63 in 10.0 mi SE 8.1 mph - N/A   Overcast
9:35 PM 60.8 °F 59.0 °F 94% 29.65 in 10.0 mi Calm Calm - N/A   Overcast
9:54 PM 60.8 °F 59.0 °F 94% 29.67 in 10.0 mi Calm Calm - N/A   Overcast
10:14 PM 60.8 °F 59.0 °F 94% 29.69 in 10.0 mi Calm Calm - N/A   Overcast
10:35 PM 60.8 °F 59.0 °F 94% 29.69 in 10.0 mi Calm Calm - N/A   Overcast
10:54 PM 60.8 °F 59.0 °F 94% 29.69 in 10.0 mi Calm Calm - N/A   Overcast
11:14 PM 60.8 °F 59.0 °F 94% 29.70 in 7.0 mi Calm Calm - N/A   Overcast
11:35 PM 60.8 °F 59.0 °F 94% 29.70 in 10.0 mi Calm Calm - N/A   Overcast
11:54 PM 60.8 °F 59.0 °F 94% 29.70 in 7.0 mi Calm Calm - N/A   Overcast